| time (UTC) | temp F | wind direction | speed MPH | gust MPH | rain 1hr in | rain 24hr in | rain mn in | humidity % | barometer mb |
| 20260506172020 | 65 | 173 | 0.0 | 6.0 | 0.06 | 0.06 | 0.06 | 87 | 999.1 |
| 20260506170903 | 64 | 163 | 0.0 | 0.0 | 0.00 | 0.04 | 0.05 | 87 | 999.0 |
| 20260506170346 | 64 | 161 | 0.0 | 8.0 | 0.00 | 0.04 | 0.04 | 86 | 999.0 |
| 20260506165851 | 64 | 197 | 0.0 | 1.0 | 0.00 | 0.04 | 0.04 | 86 | 999.0 |
| 20260506165354 | 65 | 197 | 0.0 | 1.0 | 0.00 | 0.04 | 0.04 | 86 | 999.3 |
| 20260506164233 | 65 | 208 | 0.0 | 1.0 | 0.05 | 0.04 | 0.04 | 85 | 999.7 |
| 20260506163121 | 65 | 208 | 0.0 | 0.0 | 0.06 | 0.03 | 0.04 | 84 | 1000.1 |
| 20260506162626 | 65 | 209 | 0.0 | 0.0 | 0.08 | 0.03 | 0.03 | 83 | 1000.3 |
| 20260506162120 | 65 | 192 | 0.0 | 0.0 | 0.08 | 0.02 | 0.03 | 83 | 1000.2 |
| 20260506161610 | 66 | 180 | 0.0 | 3.0 | 0.08 | 0.02 | 0.02 | 82 | 1000.3 |
| 20260506161104 | 66 | 202 | 0.0 | 0.0 | 0.00 | 0.01 | 0.01 | 80 | 1000.3 |
| 20260506160606 | 66 | 202 | 0.0 | 0.0 | 0.00 | 0.01 | 0.01 | 79 | 1000.4 |
| 20260506160109 | 66 | 204 | 1.0 | 6.0 | 0.00 | 0.00 | 0.00 | 76 | 1000.5 |
| 20260506155556 | 67 | 228 | 2.0 | 9.0 | 0.00 | 0.00 | 0.00 | 75 | 1000.4 |
| 20260506155052 | 67 | 182 | 2.0 | 9.0 | 0.00 | 0.00 | 0.00 | 74 | 1000.5 |
| 20260506154537 | 67 | 209 | 3.0 | 11.0 | 0.00 | 0.00 | 0.00 | 72 | 1000.4 |
| 20260506154037 | 68 | 160 | 4.0 | 11.0 | 0.00 | 0.00 | 0.00 | 70 | 1000.4 |
| 20260506153538 | 68 | 153 | 4.0 | 11.0 | 0.00 | 0.00 | 0.00 | 70 | 1000.4 |
| 20260506153027 | 69 | 209 | 4.0 | 11.0 | 0.00 | 0.00 | 0.00 | 69 | 1000.5 |
| 20260506152523 | 69 | 194 | 2.0 | 9.0 | 0.00 | 0.00 | 0.00 | 69 | 1000.4 |
| 20260506151404 | 69 | 212 | 2.0 | 13.0 | 0.00 | 0.00 | 0.00 | 68 | 1000.3 |
| 20260506150909 | 69 | 171 | 2.0 | 13.0 | 0.00 | 0.00 | 0.00 | 68 | 1000.2 |
| 20260506150354 | 69 | 180 | 3.0 | 13.0 | 0.00 | 0.00 | 0.00 | 67 | 1000.3 |
| 20260506145853 | 70 | 146 | 3.0 | 13.0 | 0.00 | 0.00 | 0.00 | 67 | 1000.4 |
| 20260506144708 | 70 | 188 | 5.0 | 13.0 | 0.00 | 0.00 | 0.00 | 65 | 1000.5 |
| 20260506143529 | 70 | 176 | 3.0 | 10.0 | 0.00 | 0.00 | 0.00 | 65 | 1000.4 |
| 20260506143035 | 70 | 201 | 3.0 | 10.0 | 0.00 | 0.00 | 0.00 | 66 | 1000.6 |
| 20260506142521 | 70 | 167 | 3.0 | 9.0 | 0.00 | 0.00 | 0.00 | 66 | 1000.6 |
| 20260506142006 | 69 | 190 | 2.0 | 9.0 | 0.00 | 0.00 | 0.00 | 67 | 1000.5 |
| 20260506141503 | 69 | 192 | 3.0 | 9.0 | 0.00 | 0.00 | 0.00 | 67 | 1000.4 |
| 20260506140343 | 69 | 311 | 2.0 | 9.0 | 0.00 | 0.00 | 0.00 | 67 | 1000.5 |
| 20260506135840 | 69 | 169 | 2.0 | 9.0 | 0.00 | 0.00 | 0.00 | 67 | 1000.4 |
| 20260506135328 | 69 | 185 | 2.0 | 9.0 | 0.00 | 0.00 | 0.00 | 67 | 1000.6 |
| 20260506134833 | 69 | 148 | 2.0 | 8.0 | 0.00 | 0.00 | 0.00 | 67 | 1000.5 |
| 20260506133707 | 69 | 158 | 2.0 | 8.0 | 0.00 | 0.00 | 0.00 | 67 | 1000.7 |
| 20260506133151 | 69 | 226 | 3.0 | 11.0 | 0.00 | 0.00 | 0.00 | 67 | 1000.7 |
| 20260506132633 | 69 | 182 | 4.0 | 11.0 | 0.00 | 0.00 | 0.00 | 67 | 1000.7 |
| 20260506132140 | 69 | 220 | 3.0 | 11.0 | 0.00 | 0.00 | 0.00 | 68 | 1000.8 |
| 20260506131639 | 68 | 223 | 4.0 | 11.0 | 0.00 | 0.00 | 0.00 | 68 | 1000.7 |
| 20260506131136 | 68 | 192 | 3.0 | 10.0 | 0.00 | 0.00 | 0.00 | 68 | 1000.7 |
| 20260506130645 | 68 | 157 | 2.0 | 12.0 | 0.00 | 0.00 | 0.00 | 69 | 1000.8 |
| 20260506130152 | 68 | 185 | 2.0 | 12.0 | 0.00 | 0.00 | 0.00 | 69 | 1000.8 |
| 20260506125638 | 68 | 180 | 2.0 | 12.0 | 0.00 | 0.00 | 0.00 | 68 | 1000.6 |
| 20260506125140 | 68 | 161 | 3.0 | 12.0 | 0.00 | 0.00 | 0.00 | 69 | 1000.4 |
| 20260506124626 | 68 | 210 | 3.0 | 10.0 | 0.00 | 0.00 | 0.00 | 69 | 1000.5 |
| 20260506124117 | 68 | 286 | 2.0 | 8.0 | 0.00 | 0.00 | 0.00 | 69 | 1000.3 |
| 20260506123614 | 68 | 153 | 2.0 | 6.0 | 0.00 | 0.00 | 0.00 | 70 | 1000.2 |
| 20260506123059 | 67 | 190 | 2.0 | 10.0 | 0.00 | 0.00 | 0.00 | 70 | 1000.3 |
| 20260506122600 | 67 | 173 | 1.0 | 10.0 | 0.00 | 0.00 | 0.00 | 71 | 1000.4 |
| 20260506122057 | 67 | 154 | 1.0 | 10.0 | 0.00 | 0.00 | 0.00 | 72 | 1000.4 |
| 20260506121541 | 67 | 182 | 2.0 | 10.0 | 0.00 | 0.00 | 0.00 | 72 | 1000.6 |
| 20260506121033 | 67 | 159 | 2.0 | 9.0 | 0.00 | 0.00 | 0.00 | 72 | 1000.6 |
| 20260506115858 | 67 | 329 | 2.0 | 9.0 | 0.00 | 0.00 | 0.00 | 72 | 1000.8 |
| 20260506115348 | 67 | 264 | 3.0 | 9.0 | 0.00 | 0.00 | 0.00 | 72 | 1000.8 |
| 20260506114852 | 67 | 242 | 3.0 | 9.0 | 0.00 | 0.00 | 0.00 | 72 | 1001.0 |
| 20260506114359 | 67 | 165 | 3.0 | 7.0 | 0.00 | 0.00 | 0.00 | 72 | 1001.0 |
| 20260506113904 | 67 | 167 | 2.0 | 7.0 | 0.00 | 0.00 | 0.00 | 72 | 1000.9 |
| 20260506112740 | 66 | 241 | 2.0 | 0.0 | 0.00 | 0.00 | 0.00 | 74 | 1000.8 |
| 20260506112241 | 66 | 254 | 2.0 | 10.0 | 0.00 | 0.00 | 0.00 | 74 | 1000.8 |
| 20260506111722 | 66 | 171 | 1.0 | 10.0 | 0.00 | 0.00 | 0.00 | 74 | 1000.7 |
| 20260506111231 | 66 | 201 | 2.0 | 2.0 | 0.00 | 0.00 | 0.00 | 74 | 1000.7 |
| 20260506110723 | 66 | 208 | 4.0 | 11.0 | 0.00 | 0.00 | 0.00 | 74 | 1000.7 |
| 20260506110208 | 66 | 206 | 2.0 | 11.0 | 0.00 | 0.00 | 0.00 | 74 | 1000.6 |
| 20260506105718 | 65 | 177 | 1.0 | 9.0 | 0.00 | 0.00 | 0.00 | 75 | 1000.5 |
| 20260506105219 | 65 | 159 | 2.0 | 9.0 | 0.00 | 0.00 | 0.00 | 75 | 1000.6 |
| 20260506104702 | 65 | 172 | 1.0 | 4.0 | 0.00 | 0.00 | 0.00 | 75 | 1000.5 |
| 20260506104153 | 65 | 226 | 1.0 | 6.0 | 0.00 | 0.00 | 0.00 | 75 | 1000.6 |
| 20260506103658 | 65 | 198 | 1.0 | 6.0 | 0.00 | 0.00 | 0.00 | 75 | 1000.5 |
| 20260506103158 | 65 | 206 | 1.0 | 9.0 | 0.00 | 0.00 | 0.00 | 75 | 1000.6 |
| 20260506102653 | 65 | 210 | 2.0 | 9.0 | 0.00 | 0.00 | 0.00 | 75 | 1000.6 |
| 20260506102148 | 65 | 177 | 3.0 | 9.0 | 0.00 | 0.00 | 0.00 | 75 | 1000.6 |
| 20260506101650 | 65 | 239 | 2.0 | 9.0 | 0.00 | 0.00 | 0.00 | 75 | 1000.5 |
| 20260506101153 | 65 | 194 | 2.0 | 9.0 | 0.00 | 0.00 | 0.00 | 75 | 1000.6 |
| 20260506100639 | 65 | 223 | 1.0 | 9.0 | 0.00 | 0.00 | 0.00 | 75 | 1000.4 |
| 20260506095528 | 65 | 204 | 1.0 | 5.0 | 0.00 | 0.00 | 0.00 | 75 | 1000.3 |
| 20260506095020 | 65 | 210 | 0.0 | 5.0 | 0.00 | 0.00 | 0.00 | 75 | 1000.3 |
| 20260506094526 | 65 | 252 | 0.0 | 5.0 | 0.00 | 0.00 | 0.00 | 75 | 1000.3 |
| 20260506094017 | 65 | 189 | 1.0 | 0.0 | 0.00 | 0.00 | 0.00 | 75 | 1000.3 |
| 20260506093500 | 65 | 227 | 2.0 | 8.0 | 0.00 | 0.00 | 0.00 | 75 | 1000.4 |
| 20260506093008 | 65 | 182 | 1.0 | 8.0 | 0.00 | 0.00 | 0.00 | 75 | 1000.4 |
| 20260506092503 | 65 | 203 | 0.0 | 4.0 | 0.00 | 0.00 | 0.00 | 75 | 1000.4 |
| 20260506092004 | 65 | 173 | 1.0 | 6.0 | 0.00 | 0.00 | 0.00 | 75 | 1000.4 |
| 20260506091500 | 65 | 194 | 1.0 | 6.0 | 0.00 | 0.00 | 0.00 | 75 | 1000.5 |
| 20260506090941 | 65 | 213 | 1.0 | 0.0 | 0.00 | 0.00 | 0.00 | 75 | 1000.5 |
| 20260506090441 | 65 | 192 | 1.0 | 7.0 | 0.00 | 0.00 | 0.00 | 75 | 1000.5 |
| 20260506085938 | 65 | 178 | 1.0 | 6.0 | 0.00 | 0.00 | 0.00 | 75 | 1000.5 |
| 20260506085427 | 65 | 152 | 0.0 | 6.0 | 0.00 | 0.00 | 0.00 | 75 | 1000.5 |
| 20260506084933 | 65 | 184 | 0.0 | 2.0 | 0.00 | 0.00 | 0.00 | 75 | 1000.6 |
| 20260506083808 | 66 | 192 | 0.0 | 4.0 | 0.00 | 0.00 | 0.00 | 75 | 1000.7 |
| 20260506083303 | 66 | 200 | 0.0 | 5.0 | 0.00 | 0.00 | 0.00 | 74 | 1000.6 |
| 20260506082749 | 66 | 91 | 0.0 | 4.0 | 0.00 | 0.00 | 0.00 | 74 | 1000.6 |
| 20260506082252 | 66 | 56 | 0.0 | 3.0 | 0.00 | 0.00 | 0.00 | 74 | 1000.7 |
| 20260506081759 | 66 | 186 | 0.0 | 0.0 | 0.00 | 0.00 | 0.00 | 74 | 1000.7 |
| 20260506080646 | 66 | 205 | 1.0 | 7.0 | 0.00 | 0.00 | 0.00 | 73 | 1000.8 |
| 20260506080154 | 66 | 207 | 0.0 | 6.0 | 0.00 | 0.00 | 0.00 | 73 | 1000.7 |
| 20260506073113 | 67 | 190 | 0.0 | 6.0 | 0.00 | 0.00 | 0.00 | 72 | 1000.7 |
| 20260506072621 | 67 | 225 | 0.0 | 6.0 | 0.00 | 0.00 | 0.00 | 72 | 1000.7 |
| 20260506071446 | 67 | 198 | 0.0 | 5.0 | 0.00 | 0.00 | 0.00 | 71 | 1000.7 |
| 20260506070952 | 67 | 194 | 0.0 | 6.0 | 0.00 | 0.00 | 0.00 | 71 | 1000.8 |
| 20260506070502 | 67 | 201 | 1.0 | 6.0 | 0.00 | 0.00 | 0.00 | 70 | 1000.8 |
| 20260506061425 | 68 | 132 | 1.0 | 8.0 | 0.00 | 0.00 | 0.00 | 67 | 1001.0 |
| 20260506060919 | 68 | 178 | 1.0 | 8.0 | 0.00 | 0.00 | 0.00 | 67 | 1001.0 |
| 20260506060423 | 68 | 234 | 1.0 | 8.0 | 0.00 | 0.00 | 0.00 | 67 | 1001.0 |
| 20260506051004 | 69 | 197 | 1.0 | 6.0 | 0.00 | 0.00 | 0.00 | 64 | 1001.3 |
| 20260506050453 | 69 | 168 | 0.0 | 5.0 | 0.00 | 0.00 | 0.00 | 64 | 1001.4 |
| 20260506044923 | 69 | 170 | 0.0 | 3.0 | 0.00 | 0.00 | 0.00 | 63 | 1001.5 |
| 20260506043738 | 69 | 215 | 0.0 | 8.0 | 0.00 | 0.00 | 0.00 | 62 | 1001.5 |
| 20260506043222 | 69 | 234 | 0.0 | 7.0 | 0.00 | 0.00 | 0.00 | 62 | 1001.5 |
| 20260506042721 | 69 | 224 | 1.0 | 7.0 | 0.00 | 0.00 | 0.00 | 62 | 1001.5 |
| 20260506041559 | 69 | 194 | 2.0 | 7.0 | 0.00 | 0.00 | 0.00 | 61 | 1001.5 |
| 20260506041050 | 69 | 190 | 1.0 | 7.0 | 0.00 | 0.00 | 0.00 | 61 | 1001.4 |
| 20260506040554 | 69 | 287 | 2.0 | 7.0 | 0.00 | 0.00 | 0.00 | 61 | 1001.4 |
| 20260506040047 | 69 | 190 | 1.0 | 5.0 | 0.00 | 0.00 | 0.00 | 61 | 1001.5 |
| 20260506034932 | 69 | 206 | 0.0 | 5.0 | 0.00 | 0.00 | 0.00 | 60 | 1001.4 |
| 20260506034440 | 69 | 156 | 0.0 | 5.0 | 0.00 | 0.00 | 0.00 | 60 | 1001.4 |
| 20260506033934 | 69 | 261 | 0.0 | 7.0 | 0.00 | 0.00 | 0.00 | 60 | 1001.5 |
| 20260506033434 | 69 | 178 | 0.0 | 6.0 | 0.00 | 0.00 | 0.00 | 60 | 1001.4 |
| 20260506032925 | 69 | 196 | 1.0 | 6.0 | 0.00 | 0.00 | 0.00 | 60 | 1001.5 |
| 20260506032425 | 69 | 219 | 0.0 | 2.0 | 0.00 | 0.00 | 0.00 | 60 | 1001.5 |
| 20260506031917 | 69 | 151 | 0.0 | 2.0 | 0.00 | 0.00 | 0.00 | 60 | 1001.5 |
| 20260506031424 | 69 | 227 | 0.0 | 5.0 | 0.00 | 0.00 | 0.00 | 59 | 1001.5 |
| 20260506030919 | 70 | 166 | 0.0 | 0.0 | 0.00 | 0.00 | 0.00 | 59 | 1001.5 |
| 20260506030424 | 70 | 166 | 0.0 | 5.0 | 0.00 | 0.00 | 0.00 | 59 | 1001.6 |
| 20260506025920 | 70 | 198 | 0.0 | 0.0 | 0.00 | 0.00 | 0.00 | 58 | 1001.5 |
| 20260506025414 | 70 | 198 | 0.0 | 7.0 | 0.00 | 0.00 | 0.00 | 58 | 1001.4 |
| 20260506024902 | 71 | 90 | 0.0 | 4.0 | 0.00 | 0.00 | 0.00 | 58 | 1001.4 |
| 20260506024406 | 71 | 87 | 0.0 | 0.0 | 0.00 | 0.00 | 0.00 | 57 | 1001.3 |
| 20260506023855 | 71 | 87 | 0.0 | 0.0 | 0.00 | 0.00 | 0.00 | 56 | 1001.4 |
| 20260506023400 | 72 | 87 | 0.0 | 6.0 | 0.00 | 0.00 | 0.00 | 56 | 1001.4 |
| 20260506022845 | 72 | 161 | 1.0 | 6.0 | 0.00 | 0.00 | 0.00 | 55 | 1001.3 |
| 20260506022344 | 72 | 157 | 1.0 | 6.0 | 0.00 | 0.00 | 0.00 | 55 | 1001.4 |
| 20260506021834 | 72 | 151 | 1.0 | 5.0 | 0.00 | 0.00 | 0.00 | 54 | 1001.3 |
| 20260506020656 | 73 | 199 | 1.0 | 14.0 | 0.00 | 0.00 | 0.00 | 53 | 1001.2 |
| 20260506020149 | 73 | 163 | 2.0 | 14.0 | 0.00 | 0.00 | 0.00 | 52 | 1001.2 |
| 20260506015026 | 73 | 133 | 2.0 | 12.0 | 0.00 | 0.00 | 0.00 | 51 | 1001.2 |
| 20260506013247 | 74 | 152 | 3.0 | 10.0 | 0.00 | 0.00 | 0.00 | 49 | 1001.1 |
| 20260506012749 | 75 | 162 | 3.0 | 10.0 | 0.00 | 0.00 | 0.00 | 48 | 1001.0 |
| 20260506012237 | 75 | 159 | 2.0 | 10.0 | 0.00 | 0.00 | 0.00 | 46 | 1001.0 |
| 20260506011746 | 75 | 171 | 3.0 | 10.0 | 0.00 | 0.00 | 0.00 | 46 | 1000.8 |
| 20260506010612 | 76 | 142 | 2.0 | 10.0 | 0.00 | 0.00 | 0.00 | 44 | 1000.6 |
| 20260506010059 | 76 | 140 | 2.0 | 10.0 | 0.00 | 0.00 | 0.00 | 43 | 1000.6 |
| 20260506005601 | 76 | 182 | 0.0 | 6.0 | 0.00 | 0.00 | 0.00 | 43 | 1000.5 |
| 20260506005105 | 76 | 206 | 1.0 | 5.0 | 0.00 | 0.00 | 0.00 | 42 | 1000.4 |
| 20260506004602 | 77 | 165 | 1.0 | 5.0 | 0.00 | 0.00 | 0.00 | 42 | 1000.3 |
| 20260506004053 | 77 | 170 | 0.0 | 4.0 | 0.00 | 0.00 | 0.00 | 41 | 1000.2 |
| 20260506003537 | 77 | 167 | 0.0 | 0.0 | 0.00 | 0.00 | 0.00 | 41 | 1000.2 |
| 20260506003026 | 77 | 169 | 0.0 | 10.0 | 0.00 | 0.00 | 0.00 | 41 | 1000.2 |
| 20260506002511 | 77 | 243 | 1.0 | 10.0 | 0.00 | 0.00 | 0.00 | 41 | 1000.1 |
| 20260506001342 | 78 | 178 | 3.0 | 10.0 | 0.00 | 0.00 | 0.00 | 39 | 1000.0 |
| 20260506000850 | 78 | 171 | 1.0 | 9.0 | 0.00 | 0.00 | 0.00 | 39 | 999.9 |
| 20260506000342 | 78 | 223 | 2.0 | 9.0 | 0.00 | 0.00 | 0.00 | 39 | 999.9 |
| 20260505235840 | 78 | 200 | 2.0 | 9.0 | 0.00 | 0.00 | 0.00 | 39 | 999.9 |
| 20260505235345 | 78 | 117 | 1.0 | 8.0 | 0.00 | 0.00 | 0.00 | 38 | 999.9 |
| 20260505234845 | 79 | 186 | 1.0 | 8.0 | 0.00 | 0.00 | 0.00 | 37 | 999.8 |
| 20260505234337 | 79 | 247 | 2.0 | 14.0 | 0.00 | 0.00 | 0.00 | 36 | 999.7 |
| 20260505233221 | 80 | 184 | 3.0 | 14.0 | 0.00 | 0.00 | 0.00 | 35 | 999.6 |
| 20260505232055 | 80 | 150 | 2.0 | 8.0 | 0.00 | 0.00 | 0.00 | 34 | 999.5 |
| 20260505230949 | 80 | 171 | 1.0 | 8.0 | 0.00 | 0.00 | 0.00 | 33 | 999.3 |
| 20260505230458 | 80 | 207 | 1.0 | 8.0 | 0.00 | 0.00 | 0.00 | 34 | 999.2 |
| 20260505225953 | 80 | 231 | 2.0 | 8.0 | 0.00 | 0.00 | 0.00 | 33 | 999.2 |
| 20260505225437 | 80 | 165 | 1.0 | 8.0 | 0.00 | 0.00 | 0.00 | 33 | 999.1 |
| 20260505224936 | 80 | 154 | 2.0 | 8.0 | 0.00 | 0.00 | 0.00 | 33 | 999.0 |
| 20260505223213 | 81 | 215 | 4.0 | 15.0 | 0.00 | 0.00 | 0.00 | 31 | 999.0 |
| 20260505222030 | 81 | 195 | 4.0 | 15.0 | 0.00 | 0.00 | 0.00 | 30 | 999.1 |
| 20260505221517 | 81 | 178 | 4.0 | 11.0 | 0.00 | 0.00 | 0.00 | 29 | 999.1 |
| 20260505220410 | 81 | 199 | 2.0 | 9.0 | 0.00 | 0.00 | 0.00 | 29 | 999.1 |
| 20260505215902 | 81 | 243 | 2.0 | 10.0 | 0.00 | 0.00 | 0.00 | 29 | 998.9 |
| 20260505215352 | 82 | 192 | 3.0 | 10.0 | 0.00 | 0.00 | 0.00 | 30 | 998.9 |
| 20260505214835 | 82 | 219 | 3.0 | 16.0 | 0.00 | 0.00 | 0.00 | 29 | 998.7 |
| 20260505213728 | 82 | 128 | 5.0 | 16.0 | 0.00 | 0.00 | 0.00 | 29 | 998.5 |
| 20260505213217 | 83 | 188 | 4.0 | 16.0 | 0.00 | 0.00 | 0.00 | 29 | 998.6 |
| 20260505212710 | 84 | 171 | 5.0 | 15.0 | 0.00 | 0.00 | 0.00 | 27 | 998.5 |
| 20260505212214 | 84 | 199 | 5.0 | 21.0 | 0.00 | 0.00 | 0.00 | 28 | 998.7 |
| 20260505211700 | 84 | 269 | 4.0 | 21.0 | 0.00 | 0.00 | 0.00 | 29 | 998.4 |
| 20260505211200 | 84 | 145 | 5.0 | 21.0 | 0.00 | 0.00 | 0.00 | 28 | 998.5 |
| 20260505210649 | 84 | 167 | 5.0 | 21.0 | 0.00 | 0.00 | 0.00 | 30 | 998.5 |
| 20260505210135 | 84 | 157 | 4.0 | 15.0 | 0.00 | 0.00 | 0.00 | 30 | 998.4 |
| 20260505205620 | 84 | 208 | 5.0 | 15.0 | 0.00 | 0.00 | 0.00 | 30 | 998.5 |
| 20260505205119 | 84 | 139 | 7.0 | 15.0 | 0.00 | 0.00 | 0.00 | 30 | 998.4 |
| 20260505204620 | 84 | 237 | 7.0 | 19.0 | 0.00 | 0.00 | 0.00 | 30 | 998.5 |
| 20260505204106 | 84 | 143 | 6.0 | 19.0 | 0.00 | 0.00 | 0.00 | 32 | 998.6 |
| 20260505203601 | 84 | 212 | 6.0 | 19.0 | 0.00 | 0.00 | 0.00 | 31 | 998.4 |
| 20260505203053 | 84 | 242 | 6.0 | 19.0 | 0.00 | 0.00 | 0.00 | 30 | 998.5 |
| 20260505201938 | 84 | 150 | 5.0 | 21.0 | 0.00 | 0.00 | 0.00 | 30 | 998.6 |
| 20260505201447 | 84 | 200 | 3.0 | 21.0 | 0.00 | 0.00 | 0.00 | 31 | 998.7 |
| 20260505200948 | 84 | 133 | 5.0 | 21.0 | 0.00 | 0.00 | 0.00 | 30 | 998.5 |
| 20260505200431 | 84 | 168 | 6.0 | 21.0 | 0.00 | 0.00 | 0.00 | 30 | 998.7 |
| 20260505195927 | 84 | 224 | 5.0 | 20.0 | 0.00 | 0.00 | 0.00 | 30 | 998.7 |
| 20260505194755 | 84 | 188 | 5.0 | 12.0 | 0.00 | 0.00 | 0.00 | 31 | 998.8 |
| 20260505194259 | 84 | 288 | 5.0 | 12.0 | 0.00 | 0.00 | 0.00 | 31 | 998.8 |
| 20260505193746 | 84 | 197 | 5.0 | 12.0 | 0.00 | 0.00 | 0.00 | 31 | 998.8 |
| 20260505193231 | 84 | 234 | 4.0 | 19.0 | 0.00 | 0.00 | 0.00 | 32 | 999.0 |
| 20260505192739 | 84 | 259 | 5.0 | 19.0 | 0.00 | 0.00 | 0.00 | 34 | 999.0 |
| 20260505192231 | 84 | 215 | 6.0 | 19.0 | 0.00 | 0.00 | 0.00 | 32 | 999.1 |
| 20260505191712 | 84 | 217 | 6.0 | 19.0 | 0.00 | 0.00 | 0.00 | 31 | 999.1 |
| 20260505191156 | 83 | 207 | 5.0 | 18.0 | 0.00 | 0.00 | 0.00 | 33 | 999.3 |
| 20260505190648 | 83 | 197 | 5.0 | 16.0 | 0.00 | 0.00 | 0.00 | 34 | 999.3 |
| 20260505190131 | 84 | 192 | 5.0 | 16.0 | 0.00 | 0.00 | 0.00 | 33 | 999.4 |
| 20260505185624 | 84 | 237 | 4.0 | 14.0 | 0.00 | 0.00 | 0.00 | 36 | 999.4 |
| 20260505185108 | 84 | 141 | 3.0 | 9.0 | 0.00 | 0.00 | 0.00 | 34 | 999.5 |
| 20260505184618 | 84 | 137 | 3.0 | 9.0 | 0.00 | 0.00 | 0.00 | 35 | 999.5 |
| 20260505184103 | 83 | 217 | 4.0 | 18.0 | 0.00 | 0.00 | 0.00 | 37 | 999.6 |
| 20260505183549 | 83 | 169 | 5.0 | 18.0 | 0.00 | 0.00 | 0.00 | 35 | 999.8 |
| 20260505183044 | 83 | 170 | 5.0 | 18.0 | 0.00 | 0.00 | 0.00 | 33 | 999.9 |
| 20260505182541 | 84 | 135 | 4.0 | 18.0 | 0.00 | 0.00 | 0.00 | 34 | 999.9 |
| 20260505182023 | 84 | 202 | 3.0 | 15.0 | 0.00 | 0.00 | 0.00 | 35 | 1000.0 |
| 20260505181509 | 83 | 160 | 2.0 | 15.0 | 0.00 | 0.00 | 0.00 | 36 | 999.9 |
| 20260505181015 | 83 | 132 | 4.0 | 15.0 | 0.00 | 0.00 | 0.00 | 36 | 999.9 |
| 20260505180502 | 83 | 202 | 5.0 | 15.0 | 0.00 | 0.00 | 0.00 | 36 | 1000.0 |
| 20260505180004 | 83 | 111 | 4.0 | 12.0 | 0.00 | 0.00 | 0.00 | 36 | 1000.1 |
| 20260505174841 | 82 | 173 | 4.0 | 12.0 | 0.00 | 0.00 | 0.00 | 39 | 1000.1 |
| 20260505174343 | 82 | 190 | 4.0 | 11.0 | 0.00 | 0.00 | 0.00 | 38 | 1000.1 |
| 20260505173841 | 83 | 134 | 3.0 | 12.0 | 0.00 | 0.00 | 0.00 | 38 | 1000.1 |
| 20260505173322 | 83 | 136 | 3.0 | 12.0 | 0.00 | 0.00 | 0.00 | 39 | 1000.1 |
| 20260505172821 | 83 | 200 | 3.0 | 12.0 | 0.00 | 0.00 | 0.00 | 41 | 1000.3 |